EW0706 Weather Reports


time (UTC)temp
F
wind
direction
speed
knots
gust
knots
rain 1hr
in
rain 24hr
in
rain mn
in
humidity
%
barometer
mb
20200531081739 90 0.0 0.0 0.00 0.00 0.00 20 1010.2
20200531080706 91 0.0 0.0 0.00 0.00 0.00 20 1010.3
20200531075705 92 0.0 0.0 0.00 0.00 0.00 19 1010.3
20200531074705 93 0.0 0.0 0.00 0.00 0.00 20 1010.0
20200531073632 94 0.0 0.0 0.00 0.00 0.00 19 1010.0
20200531072631 95 0.0 0.0 0.00 0.00 0.00 17 1010.0
20200531071527 95 0.0 0.0 0.00 0.00 0.00 17 1010.0
20200531070454 94 0.0 0.0 0.00 0.00 0.00 17 1010.3
20200531065453 93 0.0 0.0 0.00 0.00 0.00 18 1010.2
20200531064349 93 0.0 0.0 0.00 0.00 0.00 19 1010.2
20200531063244 92 0.0 0.0 0.00 0.00 0.00 20 1010.2
20200531062212 92 0.0 0.0 0.00 0.00 0.00 20 1010.2
20200531061211 93 0.0 0.0 0.00 0.00 0.00 20 1010.2
20200531060210 93 0.0 0.0 0.00 0.00 0.00 20 1010.5
20200531055137 92 0.0 0.0 0.00 0.00 0.00 20 1010.4
20200531054136 92 0.0 0.0 0.00 0.00 0.00 20 1010.8
20200531053135 92 0.0 0.0 0.00 0.00 0.00 22 1010.8
20200531052134 92 0.0 0.0 0.00 0.00 0.00 22 1010.8
20200531051102 92 0.0 0.0 0.00 0.00 0.00 22 1010.7
20200531050101 92 0.0 0.0 0.00 0.00 0.00 23 1010.7
20200531045100 92 0.0 0.0 0.00 0.00 0.00 23 1011.1
20200531044059 92 0.0 0.0 0.00 0.00 0.00 23 1011.0
20200531043027 92 0.0 0.0 0.00 0.00 0.00 24 1011.0
20200531042026 93 0.0 0.0 0.00 0.00 0.00 24 1011.0
20200531041025 93 0.0 0.0 0.00 0.00 0.00 23 1010.6
20200531035953 93 0.0 0.0 0.00 0.00 0.00 23 1010.6
20200531034848 93 0.0 0.0 0.00 0.00 0.00 23 1010.6
20200531033816 94 0.0 0.0 0.00 0.00 0.00 23 1010.5
20200531032815 95 0.0 0.0 0.00 0.00 0.00 23 1010.2
20200531031815 96 0.0 0.0 0.00 0.00 0.00 22 1010.2
20200531030742 96 0.0 0.0 0.00 0.00 0.00 21 1009.9
20200531025741 97 0.0 0.0 0.00 0.00 0.00 20 1009.9
20200531024636 99 0.0 0.0 0.00 0.00 0.00 19 1009.6
20200531023604 102 0.0 0.0 0.00 0.00 0.00 17 1009.4
20200531022459 104 0.0 0.0 0.00 0.00 0.00 14 1009.4
20200531021426 105 0.0 0.0 0.00 0.00 0.00 12 1008.4
20200531020425 106 0.0 0.0 0.00 0.00 0.00 12 1007.7
20200531015424 106 0.0 0.0 0.00 0.00 0.00 12 1007.4
20200531014352 107 0.0 0.0 0.00 0.00 0.00 12 1007.3
20200531013319 108 0.0 0.0 0.00 0.00 0.00 12 1007.3
20200531012318 108 0.0 0.0 0.00 0.00 0.00 12 1007.0
20200531011213 109 0.0 0.0 0.00 0.00 0.00 12 1007.0
20200531010212 109 0.0 0.0 0.00 0.00 0.00 12 1007.0
20200531005108 109 0.0 0.0 0.00 0.00 0.00 11 1007.0
20200531004107 110 0.0 0.0 0.00 0.00 0.00 11 1006.7
20200531003106 110 0.0 0.0 0.00 0.00 0.00 11 1006.7
20200531002034 110 0.0 0.0 0.00 0.00 0.00 11 1007.0
20200531001001 111 0.0 0.0 0.00 0.00 0.00 11 1007.1
20200531000000 111 0.0 0.0 0.00 0.00 0.00 11 1007.1
20200530234856 111 0.0 0.0 0.00 0.00 0.00 11 1007.1
20200530233855 110 0.0 0.0 0.00 0.00 0.00 11 1007.4
20200530232854 110 0.0 0.0 0.00 0.00 0.00 11 1007.4
20200530231822 111 0.0 0.0 0.00 0.00 0.00 11 1007.4
20200530230749 111 0.0 0.0 0.00 0.00 0.00 11 1007.8
20200530225748 112 0.0 0.0 0.00 0.00 0.00 10 1007.8
20200530224644 112 0.0 0.0 0.00 0.00 0.00 10 1007.8
20200530223644 112 0.0 0.0 0.00 0.00 0.00 10 1008.2
20200530222643 112 0.0 0.0 0.00 0.00 0.00 10 1008.2
20200530221642 111 0.0 0.0 0.00 0.00 0.00 10 1008.5
20200530220609 111 0.0 0.0 0.00 0.00 0.00 10 1008.6
20200530215608 111 0.0 0.0 0.00 0.00 0.00 10 1008.9
20200530214504 110 0.0 0.0 0.00 0.00 0.00 10 1008.9
20200530213503 111 0.0 0.0 0.00 0.00 0.00 10 1009.2
20200530212359 111 0.0 0.0 0.00 0.00 0.00 10 1009.2
20200530211358 111 0.0 0.0 0.00 0.00 0.00 10 1009.6
20200530210358 111 0.0 0.0 0.00 0.00 0.00 10 1009.6
20200530205357 111 0.0 0.0 0.00 0.00 0.00 10 1009.9
20200530204356 110 0.0 0.0 0.00 0.00 0.00 11 1010.0
20200530203355 110 0.0 0.0 0.00 0.00 0.00 11 1010.0
20200530202355 109 0.0 0.0 0.00 0.00 0.00 11 1010.3
20200530201354 110 0.0 0.0 0.00 0.00 0.00 11 1010.7
20200530200321 110 0.0 0.0 0.00 0.00 0.00 11 1010.7
20200530195321 109 0.0 0.0 0.00 0.00 0.00 11 1011.0
20200530194320 108 0.0 0.0 0.00 0.00 0.00 12 1010.9
20200530193319 108 0.0 0.0 0.00 0.00 0.00 11 1011.3
20200530192318 107 0.0 0.0 0.00 0.00 0.00 12 1011.6
20200530191317 107 0.0 0.0 0.00 0.00 0.00 12 1011.6
20200530190244 107 0.0 0.0 0.00 0.00 0.00 12 1012.0
20200530185212 106 0.0 0.0 0.00 0.00 0.00 12 1012.0
20200530184211 106 0.0 0.0 0.00 0.00 0.00 12 1012.0
20200530183210 105 0.0 0.0 0.00 0.00 0.00 12 1012.0
20200530182138 105 0.0 0.0 0.00 0.00 0.00 13 1012.3
20200530181137 105 0.0 0.0 0.00 0.00 0.00 12 1012.3
20200530180136 104 0.0 0.0 0.00 0.00 0.00 13 1012.6
20200530175104 103 0.0 0.0 0.00 0.00 0.00 13 1012.6
20200530174031 103 0.0 0.0 0.00 0.00 0.00 13 1012.7
20200530173030 103 0.0 0.0 0.00 0.00 0.00 13 1012.7
20200530171925 102 0.0 0.0 0.00 0.00 0.00 14 1013.0
20200530170925 101 0.0 0.0 0.00 0.00 0.00 14 1013.0
20200530165924 101 0.0 0.0 0.00 0.00 0.00 14 1013.0
20200530164851 101 0.0 0.0 0.00 0.00 0.00 14 1013.0
20200530163850 100 0.0 0.0 0.00 0.00 0.00 14 1013.0
20200530162746 99 0.0 0.0 0.00 0.00 0.00 15 1013.0
20200530161745 99 0.0 0.0 0.00 0.00 0.00 15 1013.0
20200530160744 98 0.0 0.0 0.00 0.00 0.00 15 1013.3
20200530155640 97 0.0 0.0 0.00 0.00 0.00 15 1013.2
20200530154639 95 0.0 0.0 0.00 0.00 0.00 17 1013.1
20200530153638 94 0.0 0.0 0.00 0.00 0.00 17 1013.5
20200530152606 93 0.0 0.0 0.00 0.00 0.00 17 1013.4
20200530151533 93 0.0 0.0 0.00 0.00 0.00 17 1013.5
20200530150533 92 0.0 0.0 0.00 0.00 0.00 18 1013.5
20200530145428 92 0.0 0.0 0.00 0.00 0.00 17 1013.4
20200530144427 92 0.0 0.0 0.00 0.00 0.00 17 1013.1
20200530143427 91 0.0 0.0 0.00 0.00 0.00 17 1013.2
20200530142426 91 0.0 0.0 0.00 0.00 0.00 17 1013.2
20200530141425 90 0.0 0.0 0.00 0.00 0.00 17 1013.2
20200530140424 89 0.0 0.0 0.00 0.00 0.00 18 1013.2
20200530135423 88 0.0 0.0 0.00 0.00 0.00 19 1012.8
20200530134422 87 0.0 0.0 0.00 0.00 0.00 19 1012.8
20200530133421 86 0.0 0.0 0.00 0.00 0.00 20 1012.8
20200530132421 86 0.0 0.0 0.00 0.00 0.00 20 1012.8
20200530131348 85 0.0 0.0 0.00 0.00 0.00 20 1012.8
20200530130347 84 0.0 0.0 0.00 0.00 0.00 19 1012.8
20200530125346 84 0.0 0.0 0.00 0.00 0.00 20 1012.8
20200530124346 84 0.0 0.0 0.00 0.00 0.00 20 1012.8
20200530123345 84 0.0 0.0 0.00 0.00 0.00 19 1012.5
20200530122344 84 0.0 0.0 0.00 0.00 0.00 19 1012.5
20200530121343 85 0.0 0.0 0.00 0.00 0.00 19 1012.5
20200530120343 85 0.0 0.0 0.00 0.00 0.00 19 1012.2
20200530115310 85 0.0 0.0 0.00 0.00 0.00 19 1012.2
20200530114309 85 0.0 0.0 0.00 0.00 0.00 19 1012.2
20200530113308 85 0.0 0.0 0.00 0.00 0.00 19 1012.2
20200530112308 85 0.0 0.0 0.00 0.00 0.00 19 1012.2
20200530111235 85 0.0 0.0 0.00 0.00 0.00 18 1012.2
20200530110234 86 0.0 0.0 0.00 0.00 0.00 18 1012.2
20200530105202 86 0.0 0.0 0.00 0.00 0.00 17 1012.3
20200530104202 87 0.0 0.0 0.00 0.00 0.00 17 1012.3
20200530103200 88 0.0 0.0 0.00 0.00 0.00 17 1012.3
20200530102159 88 0.0 0.0 0.00 0.00 0.00 17 1012.6
20200530101126 89 0.0 0.0 0.00 0.00 0.00 17 1012.7
20200530100128 89 0.0 0.0 0.00 0.00 0.00 17 1012.3
20200530095125 89 0.0 0.0 0.00 0.00 0.00 16 1012.3
20200530094053 90 0.0 0.0 0.00 0.00 0.00 16 1012.3
20200530093052 90 0.0 0.0 0.00 0.00 0.00 16 1012.0
20200530092051 90 0.0 0.0 0.00 0.00 0.00 16 1012.0
20200530091050 90 0.0 0.0 0.00 0.00 0.00 16 1011.9
20200530090049 90 0.0 0.0 0.00 0.00 0.00 16 1012.0
20200530085049 90 0.0 0.0 0.00 0.00 0.00 16 1011.9
20200530084048 91 0.0 0.0 0.00 0.00 0.00 15 1011.9
20200530083047 91 0.0 0.0 0.00 0.00 0.00 14 1012.0